Weather History for KFOE - October, 2012

Change the Weather History Date:

Thursday, October 11, 2012

  Actual Average Record
Temperature  
Mean Temperature 56 °F -  
Max Temperature 75 °F 72 °F 94 °F (1975)
Min Temperature 39 °F 44 °F 31 °F (1987)
Degree Days  
Heating Degree Days 9    
Growing Degree Days 6 (Base 50)    
Moisture  
Dew Point 44 °F    
Average Humidity 63    
Maximum Humidity 77    
Minimum Humidity 42    
Precipitation  
Precipitation 0.00 in - - ()
Sea Level Pressure  
Sea Level Pressure 30.09 in    
Wind  
Wind Speed 7 mph (SE)    
Max Wind Speed 14 mph    
Max Gust Speed 21 mph    
Visibility 10 miles    
Events      
Averages and records for this station are not official NWS values.
T = Trace of Precipitation, MM = Missing Value Source: NWS Daily Summary

Daily Weather History Graph

Daily Weather History Graph

Search for Another Location

Airport or City:

Trip Planner

Search our weather history database for the weather conditions in past years. The results will help you decide how hot, cold, wet, or windy it might be!

Date:

Astronomy

Oct. 11, 2012 Rise Set
Actual Time 7:28 AM CDT 6:49 PM CDT
Civil Twilight 7:01 AM CDT 7:15 PM CDT
Nautical Twilight 6:30 AM CDT 7:46 PM CDT
Astronomical Twilight 6:00 AM CDT 8:17 PM CDT
Moon 3:10 AM CDT (10/11) 4:24 PM CDT (10/11)
Length of Visible Light 12h 14m
Length of Day
11h 20m
Waning Crescent, 18% of the Moon is Illuminated
Oct 11
Waning Crescent
Oct 15
New
Oct 21
First Quarter
Oct 29
Full
Nov 6
Last Quarter

Hourly Weather History & Observations

Time (CDT) Temp. Windchill Dew Point Humidity Pressure Visibility Wind Dir Wind Speed Gust Speed Precip Events Conditions
12:53 AM 45.0 °F 41.8 °F 33.1 °F 63% 30.13 in 10.0 mi SSE 5.8 mph - N/A   Clear
1:53 AM 44.1 °F 40.1 °F 33.1 °F 65% 30.12 in 10.0 mi South 6.9 mph - N/A   Clear
2:53 AM 44.1 °F 40.8 °F 33.1 °F 65% 30.12 in 10.0 mi SE 5.8 mph - N/A   Clear
3:53 AM 43.0 °F 39.5 °F 33.1 °F 68% 30.10 in 10.0 mi ESE 5.8 mph - N/A   Clear
4:53 AM 43.0 °F 39.5 °F 33.1 °F 68% 30.09 in 10.0 mi SE 5.8 mph - N/A   Mostly Cloudy
5:53 AM 39.9 °F 35.8 °F 33.1 °F 77% 30.08 in 10.0 mi SE 5.8 mph - N/A   Clear
6:53 AM 41.0 °F 38.0 °F 33.1 °F 73% 30.08 in 10.0 mi ESE 4.6 mph - N/A   Clear
7:53 AM 42.1 °F 39.2 °F 34.0 °F 73% 30.09 in 10.0 mi ESE 4.6 mph - N/A   Clear
8:53 AM 50.0 °F - 39.9 °F 68% 30.09 in 10.0 mi SE 3.5 mph - N/A   Clear
9:53 AM 61.0 °F - 44.1 °F 54% 30.08 in 10.0 mi SSW 13.8 mph 20.7 mph N/A   Clear
10:53 AM 64.9 °F - 50.0 °F 58% 30.08 in 10.0 mi SSW 13.8 mph - N/A   Clear
11:53 AM 68.0 °F - 52.0 °F 56% 30.07 in 10.0 mi South 11.5 mph - N/A   Scattered Clouds
12:53 PM 72.0 °F - 52.0 °F 49% 30.06 in 10.0 mi South 12.7 mph - N/A   Scattered Clouds
1:53 PM 73.0 °F - 53.1 °F 49% 30.01 in 10.0 mi SSW 8.1 mph - N/A   Clear
3:53 PM 73.0 °F - 54.0 °F 51% 30.01 in 10.0 mi South 10.4 mph - N/A   Overcast
5:53 PM 71.1 °F - 55.9 °F 59% 30.02 in 10.0 mi SE 9.2 mph - N/A   Overcast
6:53 PM 69.1 °F - 55.9 °F 63% 30.05 in 10.0 mi ESE 6.9 mph - N/A   Overcast
8:53 PM 66.0 °F - 55.9 °F 70% 30.10 in 10.0 mi East 5.8 mph - N/A   Overcast
9:53 PM 64.9 °F - 55.9 °F 73% 30.12 in 10.0 mi ENE 4.6 mph - N/A   Overcast
10:53 PM 64.9 °F - 55.9 °F 73% 30.15 in 10.0 mi NNE 5.8 mph - N/A   Overcast
11:53 PM 60.1 °F - 37.0 °F 42% 30.18 in 10.0 mi NNE 11.5 mph - N/A   Overcast